This demonstration page uses our WeatherBlox Daily Observations layout. Learn more.

Left ArrowRight Arrow

Hourly Observations for February 29, 2020

Temp ( °F °C ) Dew Point ( °F °C ) Humidity (%) Winds ( mph kmh ) Pressure ( in mb ) Visibility ( mi km ) Precip ( " mm )
12:53 am 00:53 Clear 23 -5 14 -10 68 68 NW 8 13 30.15 1021 10 16 N/A
1:53 am 01:53 Clear 21 -6.1 14 -10 74 74 WNW 5 7 30.15 1021 10 16 N/A
2:53 am 02:53 Clear 20 -6.7 14 -10 78 78 W 3 6 30.15 1021 10 16 N/A
3:53 am 03:53 Clear 21 -6.1 14 -10 74 74 W 6 9 30.16 1022 10 16 N/A
4:53 am 04:53 Clear 19 -7.2 14 -10 81 81 WSW 6 9 30.18 1022 10 16 N/A
5:53 am 05:53 Clear 18 -7.8 13 -10.6 81 81 WSW 5 7 30.19 1022 10 16 N/A
6:53 am 06:53 Clear 18 -7.8 13 -10.6 81 81 W 5 7 30.22 1023 10 16 N/A
7:53 am 07:53 Sunny 20 -6.7 14 -10 78 78 W 5 7 30.23 1024 10 16 N/A
8:53 am 08:53 Sunny 23 -5 14 -10 68 68 W 7 11 30.25 1025 10 16 N/A
9:53 am 09:53 Sunny 26 -3.3 14 -10 60 60 WNW 8 13 30.27 1025 10 16 N/A
10:53 am 10:53 Sunny 29 -1.7 16 -8.9 58 58 W 9 15 30.28 1025 10 16 N/A
11:53 am 11:53 Mostly Sunny 31 -0.6 16 -8.9 54 54 WSW 13 20 30.29 1026 10 16 N/A
12:53 pm 12:53 Sunny 32 undefined 15 -9.4 50 50 WNW 12 19 30.28 1025 10 16 N/A
1:53 pm 13:53 Sunny 35 1.7 16 -8.9 46 46 W 8 13 30.26 1025 10 16 N/A
2:53 pm 14:53 Sunny 35 1.7 14 -10 42 42 W 12 19 30.26 1025 10 16 N/A
3:53 pm 15:53 Sunny 36 2.2 14 -10 40 40 W 9 15 30.25 1024 10 16 N/A
4:53 pm 16:53 Sunny 37 2.8 15 -9.4 41 41 VRB 5 7 30.25 1025 10 16 N/A
5:53 pm 17:53 Sunny 35 1.7 14 -10 42 42 W 6 9 30.26 1025 10 16 N/A
6:53 pm 18:53 Clear 32 undefined 17 -8.3 54 54 WSW 3 6 30.27 1025 10 16 N/A
7:53 pm 19:53 Clear 27 -2.8 18 -7.8 69 69 N N/A 30.27 1025 10 16 N/A
8:53 pm 20:53 Clear 26 -3.3 20 -6.7 78 78 N N/A 30.27 1025 10 16 N/A
9:53 pm 21:53 Clear 24 -4.4 19 -7.2 81 81 N N/A 30.27 1025 10 16 N/A
10:53 pm 22:53 Clear 23 -5 19 -7.2 85 85 N N/A 30.26 1025 10 16 N/A
11:53 pm 23:53 Clear 22 -5.6 17 -8.3 82 82 N N/A 30.25 1024 10 16 N/A

Powered by AerisWeather